#timestamp,LO_Frequency,Hit,StdDev 
1633474815.2,286046999.9,N
1633474835.0,286047000.5,N
1633474835.9,286047011.9,Y
1633474855.8,286046998.1,P
1633474875.6,286046998.4,N
1633474895.4,286046996.5,P
1633474915.3,286046996.5,Y
1633474935.1,286047000.1,P
1633474955.9,286047000.0,N
1633474975.7,286047002.6,N
1633474995.5,286047002.8,N
1633475015.4,286047000.4,N
1633475035.2,286047001.2,N
1633475055.1,286046998.1,N
1633475056.0,286046998.1,N
1633475075.8,286046998.6,N
1633475095.6,286046999.2,N
1633475115.5,286046996.7,N
1633475135.3,286046997.6,N
1633475155.1,286046997.7,N
1633475175.9,286046995.1,N
1633475195.7,286046997.7,N
1633475215.6,286046995.0,N
1633475235.4,286046996.2,N
1633475255.2,286046996.2,N
1633475275.1,286046993.6,N
1633475276.0,286046993.6,N
1633475295.8,286046994.5,N
1633475315.7,286046992.2,Y
1633475335.5,286046993.7,P
1633475355.3,286046993.3,P
1633475375.2,286046996.2,N
1633475395.0,286046996.4,N
1633475395.9,286046996.4,N
1633475415.8,286046995.0,Y
1633475435.6,286047000.3,P
1633475455.4,286047002.2,N
1633475475.3,286047003.8,N
1633475495.1,286047004.3,N
1633475515.8,286047001.3,N
1633475535.7,286047001.5,N
1633475555.5,286047003.7,N
1633475575.4,286047003.2,N
1633475595.2,286047005.7,N
1633475615.0,286047005.6,N
1633475615.9,286047005.6,N
1633475635.8,286047007.1,N
1633475655.6,286047004.6,N
1633475675.4,286047005.3,N
1633475695.3,286047007.5,N
1633475715.1,286047005.0,N
1633475735.9,286047007.5,N
1633475755.7,286047005.2,N
1633475775.5,286047005.8,N
1633475795.4,286047004.8,N
1633475815.2,286047005.9,N
1633475835.1,286047003.8,N
1633475836.0,286047003.8,N
1633475855.8,286047003.5,N
1633475875.6,286047003.9,N
1633475895.5,286047003.3,N
1633475915.3,286047004.1,N
1633475935.2,286047005.5,N
1633475955.9,286047007.4,Y
1633475975.7,286047001.7,P
1633475995.6,286047001.4,N
1633476015.4,286047001.8,N
1633476035.2,286047003.9,Y
1633476055.1,286047002.8,P
1633476056.0,286047002.8,P
1633476075.8,286047002.2,P
1633476095.7,286047002.6,Y
1633476115.5,286047001.2,P
1633476135.4,286047000.8,N
1633476155.2,286046996.6,P
1633476175.0,286046994.9,N
1633476175.9,286046994.9,N
1633476195.8,286046995.4,N
1633476215.6,286046996.8,N
1633476235.5,286046996.6,N
1633476255.3,286046995.0,N
1633476275.1,286046996.6,N
1633476295.9,286046996.8,N
1633476315.7,286046997.3,N
1633476335.5,286046995.0,N
1633476355.4,286046995.6,N
1633476375.2,286046997.7,N
1633476395.1,286046997.0,N
1633476396.0,286046997.0,N
1633476415.8,286046999.6,N
1633476435.6,286046996.9,N
1633476455.5,286046997.8,N
1633476475.3,286046995.4,N
1633476495.2,286046996.2,N
1633476515.9,286046995.9,N
1633476535.7,286046996.0,N
1633476555.6,286046996.0,N
1633476575.4,286046995.6,N
1633476595.2,286046996.3,N
1633476615.1,286046995.5,N
1633476616.0,286046995.5,N
1633476635.8,286046995.8,N
1633476655.7,286046997.4,N
1633476675.5,286046995.7,Y
1633476695.3,286046998.9,P
1633476715.2,286047001.0,N
1633476735.0,286046998.7,N
1633476735.9,286046998.7,N
1633476755.8,286046999.3,N
1633476775.6,286046999.4,N
1633476795.4,286046999.1,N
1633476815.3,286046998.1,N
1633476835.1,286047002.7,N
1633476855.8,286046999.7,N
1633476875.7,286047002.1,N
1633476895.5,286047002.5,N
1633476915.4,286047003.7,N
1633476935.2,286047003.5,N
1633476955.0,286047005.8,N
1633476955.9,286047005.8,N
1633476975.8,286047006.8,N
1633476995.6,286047009.9,Y
1633477015.5,286047011.9,P
1633477035.3,286047011.4,N
1633477055.1,286047015.0,P
1633477075.9,286047014.2,N
1633477095.7,286047018.7,Y
1633477115.6,286047006.2,P
1633477135.4,286047006.6,N
1633477155.2,286047010.8,P
1633477175.1,286047010.5,Y
1633477176.0,286047010.5,P
1633477195.8,286047001.9,N
1633477215.6,286047002.1,N
1633477235.5,286046999.8,N
1633477255.3,286047002.8,N
1633477275.2,286047000.6,N
1633477295.9,286047000.8,N
1633477315.7,286046998.6,N
1633477335.6,286046999.4,N
1633477355.4,286046999.5,N
1633477375.3,286046996.9,N
1633477395.1,286046996.9,N
1633477415.8,286046996.5,N
1633477435.7,286046998.3,N
1633477455.5,286046999.8,N
1633477475.4,286047001.4,N
1633477495.2,286047002.4,N
1633477515.0,286047002.5,N
1633477515.9,286047002.5,N
1633477535.8,286047000.8,N
1633477555.6,286047002.0,N
1633477575.4,286047001.9,N
1633477595.3,286047001.8,N
1633477615.1,286047000.6,N
1633477635.9,286047000.8,N
1633477655.7,286046998.7,N
1633477675.5,286047001.2,N
1633477695.4,286046999.4,N
1633477715.2,286046997.5,N
1633477735.1,286046996.7,N
1633477736.0,286046996.7,N
1633477755.8,286046994.9,N
1633477775.6,286046993.9,N
1633477795.5,286046994.4,N
1633477815.3,286046997.1,N
1633477835.1,286046997.1,N
1633477855.9,286046997.1,N
1633477875.7,286046997.2,N
1633477895.6,286046995.4,N
1633477915.4,286046996.3,N
1633477935.2,286046993.8,N
1633477955.1,286046996.4,N
1633477956.0,286046996.4,N
1633477975.8,286046993.3,N
1633477995.7,286046996.3,N
1633478015.5,286046995.2,N
1633478035.3,286046994.9,N
1633478055.2,286046999.3,N
1633478075.0,286047000.9,N
1633478075.9,286047000.9,N
1633478095.7,286046998.1,N
1633478115.6,286046996.8,N
1633478135.4,286046995.1,N
1633478155.3,286046993.7,N
1633478175.1,286046993.6,N
1633478195.8,286046996.3,N
1633478215.7,286046996.2,N
1633478235.5,286046993.8,Y
1633478255.4,286046996.5,P
1633478275.2,286046995.6,P
1633478295.0,286046996.1,P
1633478295.9,286046996.1,Y
1633478315.8,286046998.5,P
1633478335.6,286046998.7,N
1633478355.5,286046998.1,N
1633478375.3,286047000.1,N
1633478395.1,286047001.7,N
